www.pogodaiklimat.ru
ПОГОДА в Фариболте
Время
и дата
01:35 23.05
01:55 23.05
02:15 23.05
02:35 23.05
02:55 23.05
03:15 23.05
03:35 23.05
03:55 23.05
04:15 23.05
04:35 23.05
04:55 23.05
05:15 23.05
05:35 23.05
05:55 23.05
06:15 23.05
06:35 23.05
06:55 23.05
07:15 23.05
07:35 23.05
07:55 23.05
08:15 23.05
08:35 23.05
08:55 23.05
09:15 23.05
09:35 23.05
09:55 23.05
10:15 23.05
10:35 23.05
10:55 23.05
11:15 23.05
11:35 23.05
11:55 23.05
12:15 23.05
12:35 23.05
12:55 23.05
13:15 23.05
13:35 23.05
13:55 23.05
14:15 23.05
14:35 23.05
14:55 23.05
15:15 23.05
15:35 23.05
15:55 23.05
16:15 23.05
16:35 23.05
16:55 23.05
17:15 23.05
Ветер
(напр.,м/с)
Видим. Явления Облачность Т
(С)
Тd
(С)
f
(%)
Тe
(С)
Тes
(С)
Комфортность P
(гПа)
Po
(гПа)
Тmin
(С)
Tmax
(С)
R
(мм)
R24
(мм)
S
(см)
штиль 0 16 км ясно +6.0 +1.0 70 +5 +5 990.4
штиль 0 16 км ясно +4.0 +1.0 81 +3 +3 990.4
штиль 0 16 км ясно +3.0 +1.0 87 +2 +2 990.4
штиль 0 16 км ясно +3.0 +1.0 87 +2 +2 990.4
штиль 0 16 км ясно +3.0 +1.0 87 +2 +2 990.4
штиль 0 16 км ясно +5.0 +1.0 75 +4 +4 990.4
штиль 0 16 км ясно +3.0 +1.0 87 +2 +2 990.4
штиль 0 16 км ясно +2.0 +1.0 93 +1 +1 990.4
штиль 0 16 км ясно +2.0 +1.0 93 +1 +1 990.1
штиль 0 16 км ясно +2.0 +1.0 93 +1 +1 989.8
штиль 0 16 км ясно +2.0 +1.0 93 +1 +1 989.8
штиль 0 16 км ясно +2.0 +1.0 93 +1 +1 989.8
штиль 0 16 км ясно +3.0 +3.0 100 +2 +2 990.1
штиль 0 16 км ясно +6.0 +2.0 75 +5 +5 989.8
штиль 0 16 км ясно +7.0 +3.0 76 +6 +8 990.1
штиль 0 16 км ясно +7.0 +2.0 70 +6 +8 990.1
штиль 0 16 км ясно +8.0 +2.0 66 +7 +9 990.4
Ю 1 16 км ясно +10.0 +3.0 62 +9 +12 990.4
Ю 1 16 км ясно +11.0 +3.0 58 +10 +13 990.4
Ю 1 16 км ясно +13.0 +2.0 47 +13 +16 990.4
ЮВ 1 16 км ясно +13.0 +1.0 44 +12 +18 990.1
Ю 1 16 км ясно +13.0 -1.0 38 +12 +18 990.1
ЮЗ 1 16 км ясно +13.0 -1.0 38 +13 +19 990.1
штиль 0 16 км ясно +14.0 -2.0 33 +14 +29 опасность
простуды
990.1
штиль 0 16 км ясно +14.0 -2.0 33 +14 +29 опасность
простуды
990.1
штиль 0 16 км ясно +14.0 -1.0 36 +14 +29 опасность
простуды
989.8
С 1 16 км ясно +15.0 -2.0 31 +15 +30 опасность
простуды
989.5
В 1 16 км 5/0 2100 м
[Ac]
+16.0 -1.0 31 +16 +26 989.5
В 1 16 км 5/0 2100 м
[Ac]
+16.0 -1.0 31 +16 +26 989.1
Ю 2 16 км ясно +16.0 -1.0 31 +15 +27 опасность
простуды
988.8
Ю 1 16 км ясно +16.0 -1.0 31 +16 +30 опасность
простуды
988.5
СВ 1 16 км ясно +16.0 -1.0 31 +16 +34 опасность
простуды
988.5
Ю 1 16 км ясно +16.0 0.0 34 +16 +35 опасность
простуды
988.2
штиль 0 16 км ясно +16.0 -1.0 31 +16 +41 опасность
простуды
987.8
штиль 0 16 км ясно +17.0 -1.0 29 +17 +42 опасность
простуды
987.5
ЮВ 2 16 км ясно +18.0 +1.0 32 +18 +27 987.2
В 1 16 км ясно +17.0 0.0 32 +17 +32 опасность
простуды
987.2
ЮВ 1 16 км ясно +18.0 0.0 30 +19 +37 опасность
простуды
986.9
В 1 16 км ясно +17.0 0.0 32 +17 +33 опасность
простуды
986.5
ЮВ 1 16 км ясно +18.0 +1.0 32 +18 +31 опасность
простуды
986.5
ЮВ 1 16 км 5/0 2400 м
[Ac]
+18.0 0.0 30 +18 +27 986.5
ЮВ 1 16 км 5/0 2400 м
[Ac]
+18.0 +1.0 32 +19 +27 986.2
Ю 1 16 км 5/0 2400 м
[Ac]
+18.0 0.0 30 +18 +25 986.2
ЮВ 2 16 км 5/0 2400 м
[Ac]
+18.0 +1.0 32 +18 +22 985.9
ЮВ 1 16 км ясно +18.0 +1.0 32 +18 +25 985.9
ЮВ 1 16 км ясно +18.0 +1.0 32 +19 +27 985.9
ЮВ 2 16 км ясно +17.0 +1.0 34 +17 +22 985.9
ЮВ 2 16 км ясно +17.0 +1.0 34 +17 +20 985.9
Местоположение метеостанции Faribault Municipal Airport: широта 44.3298 долгота -93.3119 высота над уровнем моря 318 м.
В архиве по умолчанию представлена погода в Фариболте за последние 1-2 суток. Обновление информации о фактической погоде в базе происходит ежечасно! Архивные данные за месяц целиком и за предыдущие месяцы Вы можете получить, выбрав интересующий диапазон дат из раскрывающегося списка и нажав кнопку "Ввод!".
Внимание! Архив погоды МЕТАР в базе сайта по станциям, не включенным в климатический монитор, хранится не более 60 дней. Нет смысла пытаться выбрать более раннюю дату.
*Определитесь, кто Вы:
Внимание! Время в таблицах - местное (без учета летнего времени). Для получения всемирного времени необходимо вычесть поправку, которая равна -6 ч.
Смотрите также архив погоды в соседних городах и на ближайших метеорологических станциях:
Партнеры нашего сайта:      
Пояснения к столбцам:
  • Ветер - указаны скорость ветра в м/с - средняя за 10 мин, порывы в срок и между сроками (в фигурных скобках) и направление, откуда дует ветер: С - северный,
  • СВ - северо-восточный, В - восточный, ЮВ - юго-восточный, Ю - южный, ЮЗ - юго-западный, З - западный, СЗ - северо-западный.
  • Видимость - горизонтальная дальность видимости в метрах или километрах. При видимости от 1 до 10 км при отсутствии осадков обычно наблюдается дымка, при ухудшении видимости до 1 км и менее - туман. В сухую погоду видимость может ухудшаться дымом, пылью или мглою.
  • Явления - указаны атмосферные явления, наблюдавшиеся в срок или в последний час перед сроком; фигурными скобками обозначены явления, наблюдавшиеся между сроками (за 1-3 часа до срока); квадратными скобками обозначены град или гололедные отложения с указанием их диаметра в мм.
  • Облачность - указаны через наклонную черту общая и нижняя облачность в баллах и высота нижней границы облаков в метрах; квадратными скобками обозначены формы облаков: Ci - перистые, Cs - перисто-слоистые, Cc - перисто-кучевые, Ac - высококучевые, As - высокослоистые, Sc - слоисто-кучевые, Ns - слоисто-дождевые, Cu - кучевые, Cb - кучево-дождевые. Подробнее классификацию облаков см. в Атласе облаков (PDF).
  • T - Температура воздуха - температура, измеренная на высоте 2 м над землей.
  • Td - Температура точки росы - температура, при понижении до которой содержащийся в воздухе водяной пар достигнет насыщения.
  • f - Относительная влажность воздуха - влажноcть воздуха, измеренная на высоте 2 м над землей.
  • Te - Эффективная температура - температура, которую ощущает одетый по сезону человек в тени. Характеристика душности погоды. При расчете учитывается влияние влажности воздуха и скорости ветра на теплоощущения человека.
  • Tes - Эффективная температура на солнце - температура, которую ощущает человек, с поправкой на солнечный нагрев. Характеристика знойности погоды. Зависит от высоты солнца над горизонтом, облачности и скорости ветра. Ночью, в пасмурную погоду, а также при ветре 12 м/с и более поправка равна нулю.
  • P - Атмосферное давление - приведенное к уровню моря атмосферное давление.
  • Po - Атмосферное давление - измеренное на уровне метеостанции атмосферное давление.
  • Tmin - Минимальная температура - минимум температуры воздуха на высоте 2 м над землей.
  • Tmax - Максимальная температура - максимум температуры воздуха на высоте 2 м над землей.
  • R - Количество осадков - Количество выпавших осадков за период времени, мм. При наведении курсора мыши на число - период времени, за который выпало указанное количество осадков.
  • R24 - Количество осадков - Количество выпавших осадков за 24 часа, мм.
  • S - Снежный покров - Высота снежного покрова, см. При наведении курсора мыши на число - состояние снежного покрова и степень покрытия местности в баллах.